WetterOnline ( http://www.wetteronline.de )

Wetter aktuell Bollendorf

Aktuelles Wetter: Deuselbach (483m)

6-stündlich | Neueste Meldungen
Ortszeit Temperatur Wetter
Sa, 21.07. 20:00 15.4° C Regen
Sa, 21.07. 14:00 23.0° C wolkig
Sa, 21.07. 8:00 16.5° C bedeckt
Sa, 21.07. 2:00 16.5° C bewölkt
Fr, 20.07. 20:00 20.8° C leichter Regen
Fr, 20.07. 14:00 26.1° C wolkig
Fr, 20.07. 8:00 18.3° C wolkig
Fr, 20.07. 2:00 19.1° C wolkig
Ortszeit Temperatur Wetter
So, 22.07. 0:30 14.6° C fast wolkenlos
So, 22.07. 0:20 14.6° C fast wolkenlos
So, 22.07. 0:10 15.2° C leicht bewölkt
So, 22.07. 0:00 14.5° C Nebel
Sa, 21.07. 23:50 14.5° C Nebel
Sa, 21.07. 23:40 14.5° C Nebel
Sa, 21.07. 23:30 14.7° C Nebel
Sa, 21.07. 23:00 14.9° C bewölkt
Sa, 21.07. 22:30 15.2° C wolkig
Sa, 21.07. 22:00 15.5° C bedeckt
Sa, 21.07. 21:30 15.7° C bewölkt
Ortszeit Relative Feuchte Sichtweite
Sa, 21.07. 20:00 100% 3.6 km
Sa, 21.07. 14:00 54% 30 km
Sa, 21.07. 8:00 85% 10 km
Sa, 21.07. 2:00 83% 23 km
Fr, 20.07. 20:00 67% 14 km
Fr, 20.07. 14:00 33% 60 km
Fr, 20.07. 8:00 51% 50 km
Fr, 20.07. 2:00 51% 45 km
Ortszeit Relative Feuchte Sichtweite
So, 22.07. 0:30 97% 6 km
So, 22.07. 0:20 97% -
So, 22.07. 0:10 95% -
So, 22.07. 0:00 100% 0.4 km
Sa, 21.07. 23:50 100% -
Sa, 21.07. 23:40 99% -
Sa, 21.07. 23:30 99% 0.6 km
Sa, 21.07. 23:00 99% 4.4 km
Sa, 21.07. 22:30 97% 9 km
Sa, 21.07. 22:00 96% 14 km
Sa, 21.07. 21:30 94% 17 km
Ortszeit Niederschlagsmenge Niederschlagsart
Sa, 21.07. 20:00 56 l/m2 in 12 Std. Regenschauer
Sa, 21.07. 14:00 0.0 l/m2 in 6 Std. -
Sa, 21.07. 8:00 3 l/m2 in 12 Std. -
Sa, 21.07. 2:00 3 l/m2 in 6 Std. Regen
Fr, 20.07. 20:00 0.1 l/m2 in 12 Std. Regen
Fr, 20.07. 14:00 0.0 l/m2 in 6 Std. -
Fr, 20.07. 8:00 0.0 l/m2 in 12 Std. -
Fr, 20.07. 2:00 0.0 l/m2 in 6 Std. -
Ortszeit Niederschlagsmenge Niederschlagsart
So, 22.07. 0:30 0.0 l/m2 in 1 Std. -
So, 22.07. 0:20 keine Meldung -
So, 22.07. 0:10 keine Meldung -
So, 22.07. 0:00 0.0 l/m2 in 1 Std. -
Sa, 21.07. 23:50 keine Meldung -
Sa, 21.07. 23:40 keine Meldung -
Sa, 21.07. 23:30 0.0 l/m2 in 1 Std. -
Sa, 21.07. 23:00 0.0 l/m2 in 1 Std. Regen
Sa, 21.07. 22:30 0.0 l/m2 in 1 Std. -
Sa, 21.07. 22:00 0.0 l/m2 in 1 Std. -
Sa, 21.07. 21:30 0.0 l/m2 in 1 Std. -
Ortszeit Stärke Spitze Richtung
km/h Bft. km/h Grad Sektor
Sa, 21.07. 20:00 9 2 54 170° S
Sa, 21.07. 14:00 11 2 26 270° W
Sa, 21.07. 8:00 6 1 15 260° W
Sa, 21.07. 2:00 6 1 24 150° SO
Fr, 20.07. 20:00 11 2 36 340° N
Fr, 20.07. 14:00 9 2 20 320° NW
Fr, 20.07. 8:00 4 1 22 280° W
Fr, 20.07. 2:00 11 2 18 130° SO
Ortszeit Stärke Spitze Richtung
km/h Bft. km/h Grad Sektor
So, 22.07. 0:30 4 1 7 190° S
So, 22.07. 0:20 4 1 - 190° S
So, 22.07. 0:10 4 1 - 200° S
So, 22.07. 0:00 7 2 7 160° S
Sa, 21.07. 23:50 7 2 - 160° S
Sa, 21.07. 23:40 7 2 - 160° S
Sa, 21.07. 23:30 4 1 7 190° S
Sa, 21.07. 23:00 0 0 11 - -
Sa, 21.07. 22:30 4 1 11 90° O
Sa, 21.07. 22:00 11 2 22 200° S
Sa, 21.07. 21:30 11 2 22 210° SW
Ortszeit Untergrenze Bedeckung Gattung
total tief tief mittel hoch
Sa, 21.07. 20:00 2100 m 8/8 8/8 - - -
Sa, 21.07. 14:00 2400 m 8/8 3/8 - - -
Sa, 21.07. 8:00 3000 m 8/8 8/8 - - -
Sa, 21.07. 2:00 3600 m 8/8 4/8 - - -
Fr, 20.07. 20:00 1800 m 8/8 7/8 - - -
Fr, 20.07. 14:00 2100 m 6/8 6/8 - - -
Fr, 20.07. 8:00 6300 m 7/8 1/8 - - -
Fr, 20.07. 2:00 6300 m 8/8 1/8 - - -
Ortszeit Bedeckungsgrad in Achtel und Wolkenuntergrenze
So, 22.07. 0:30 1(3300m)
So, 22.07. 0:20 1(3300m)
So, 22.07. 0:10 2(3300m)
So, 22.07. 0:00 1(3000m)
Sa, 21.07. 23:50 keine Wolken
Sa, 21.07. 23:40 1(3300m)
Sa, 21.07. 23:30 2(3300m) 3(5700m)
Sa, 21.07. 23:00 4(2700m) 8(6600m) 8(9000m)
Sa, 21.07. 22:30 3(2700m) 8(7200m) 8(7800m)
Sa, 21.07. 22:00 1(3000m) 8(6600m) 8(9000m)
Sa, 21.07. 21:30 5(2700m) 8(3300m)
Ortszeit Luftdruck NN (hPa) Tendenz (hPa in 3 Std.)
Sa, 21.07. 20:00 1013 + 1,1
Sa, 21.07. 14:00 1011 + 0,4
Sa, 21.07. 8:00 1011 + 0,3
Sa, 21.07. 2:00 1011 - 0,6
Fr, 20.07. 20:00 1011 - 0,5
Fr, 20.07. 14:00 1012 - 0,7
Fr, 20.07. 8:00 1014 - 0,4
Fr, 20.07. 2:00 1015 - 0,4
Ortszeit Luftdruck NN (hPa) Tendenz (hPa in 3 Std.)
So, 22.07. 0:30 1014 + 0,8
So, 22.07. 0:20 1014 keine Meldung
So, 22.07. 0:10 1014 keine Meldung
So, 22.07. 0:00 1014 + 0,7
Sa, 21.07. 23:50 1014 keine Meldung
Sa, 21.07. 23:40 1014 keine Meldung
Sa, 21.07. 23:30 1014 + 0,5
Sa, 21.07. 23:00 1014 + 0,3
Sa, 21.07. 22:30 1013 0,0
Sa, 21.07. 22:00 1013 - 0,6
Sa, 21.07. 21:30 1013 - 0,2
Ortszeit Schneehöhe (cm)
Sa, 21.07. 20:00 -
Sa, 21.07. 14:00 -
Sa, 21.07. 8:00 -
Sa, 21.07. 2:00 -
Fr, 20.07. 20:00 -
Fr, 20.07. 14:00 -
Fr, 20.07. 8:00 -
Fr, 20.07. 2:00 -
Ortszeit Schneehöhe (cm)
So, 22.07. 0:30 -
So, 22.07. 0:20 -
So, 22.07. 0:10 -
So, 22.07. 0:00 -
Sa, 21.07. 23:50 -
Sa, 21.07. 23:40 -
Sa, 21.07. 23:30 -
Sa, 21.07. 23:00 -
Sa, 21.07. 22:30 -
Sa, 21.07. 22:00 -
Sa, 21.07. 21:30 -
Link zu dieser Seite / Seite empfehlen

Das Wetter in ...